Year,Month,Day,Hour,Minute,Value (Times are PST for temperature in C)
2014,07,10,00,00,15.00
2014,07,10,00,01,15.00
2014,07,10,00,02,15.00
2014,07,10,00,03,15.00
2014,07,10,00,04,14.90
2014,07,10,00,05,14.90
2014,07,10,00,06,14.90
2014,07,10,00,07,14.90
2014,07,10,00,08,14.90
2014,07,10,00,09,14.80
2014,07,10,00,10,14.80
2014,07,10,00,11,14.80
2014,07,10,00,12,14.80
2014,07,10,00,13,14.80
2014,07,10,00,14,14.80
2014,07,10,00,15,14.80
2014,07,10,00,16,14.80
2014,07,10,00,17,14.70
2014,07,10,00,18,14.70
2014,07,10,00,19,14.70
2014,07,10,00,20,14.70
2014,07,10,00,21,14.60
2014,07,10,00,22,14.60
2014,07,10,00,23,14.60
2014,07,10,00,24,14.60
2014,07,10,00,25,14.60
2014,07,10,00,26,14.50
2014,07,10,00,27,14.50
2014,07,10,00,28,14.50
2014,07,10,00,29,14.50
2014,07,10,00,30,14.50
2014,07,10,00,31,14.50
2014,07,10,00,32,14.50
2014,07,10,00,33,14.50
2014,07,10,00,34,14.50
2014,07,10,00,35,14.50
2014,07,10,00,36,14.50
2014,07,10,00,37,14.50
2014,07,10,00,38,14.50
2014,07,10,00,39,14.50
2014,07,10,00,40,14.50
2014,07,10,00,41,14.50
2014,07,10,00,42,14.50
2014,07,10,00,43,14.50
2014,07,10,00,44,14.50
2014,07,10,00,45,14.50
2014,07,10,00,46,14.50
2014,07,10,00,47,14.40
2014,07,10,00,48,14.40
2014,07,10,00,49,14.40
2014,07,10,00,50,14.40
2014,07,10,00,51,14.40
2014,07,10,00,52,14.40
2014,07,10,00,53,14.40
2014,07,10,00,54,14.40
2014,07,10,00,55,14.30
2014,07,10,00,56,14.30
2014,07,10,00,57,14.20
2014,07,10,00,58,14.20
2014,07,10,00,59,14.20
2014,07,10,01,00,14.20
2014,07,10,01,01,14.10
2014,07,10,01,02,14.10
2014,07,10,01,03,14.10
2014,07,10,01,04,14.00
2014,07,10,01,05,14.00
2014,07,10,01,06,14.00
2014,07,10,01,07,14.00
2014,07,10,01,08,14.00
2014,07,10,01,09,14.00
2014,07,10,01,10,14.00
2014,07,10,01,11,14.00
2014,07,10,01,12,14.00
2014,07,10,01,13,13.90
2014,07,10,01,14,13.90
2014,07,10,01,15,13.90
2014,07,10,01,16,13.90
2014,07,10,01,17,13.90
2014,07,10,01,18,13.90
2014,07,10,01,19,13.90
2014,07,10,01,20,13.90
2014,07,10,01,21,13.90
2014,07,10,01,22,13.90
2014,07,10,01,23,13.90
2014,07,10,01,24,13.80
2014,07,10,01,25,13.80
2014,07,10,01,26,13.80
2014,07,10,01,27,13.80
2014,07,10,01,28,13.70
2014,07,10,01,29,13.70
2014,07,10,01,30,13.70
2014,07,10,01,31,13.70
2014,07,10,01,32,13.60
2014,07,10,01,33,13.60
2014,07,10,01,34,13.60
2014,07,10,01,35,13.50
2014,07,10,01,36,13.50
2014,07,10,01,37,13.40
2014,07,10,01,38,13.40
2014,07,10,01,39,13.40
2014,07,10,01,40,13.40
2014,07,10,01,41,13.30
2014,07,10,01,42,13.30
2014,07,10,01,43,13.30
2014,07,10,01,44,13.30
2014,07,10,01,45,13.30
2014,07,10,01,46,13.30
2014,07,10,01,47,13.30
2014,07,10,01,48,13.30
2014,07,10,01,49,13.30
2014,07,10,01,50,13.30
2014,07,10,01,51,13.30
2014,07,10,01,52,13.30
2014,07,10,01,53,13.30
2014,07,10,01,54,13.30
2014,07,10,01,55,13.30
2014,07,10,01,56,13.30
2014,07,10,01,57,13.30
2014,07,10,01,58,13.30
2014,07,10,01,59,13.30
2014,07,10,02,00,13.30
2014,07,10,02,01,13.20
2014,07,10,02,02,13.20
2014,07,10,02,03,13.20
2014,07,10,02,04,13.20
2014,07,10,02,05,13.20
2014,07,10,02,06,13.20
2014,07,10,02,07,13.10
2014,07,10,02,08,13.10
2014,07,10,02,09,13.10
2014,07,10,02,10,13.10
2014,07,10,02,11,13.10
2014,07,10,02,12,13.00
2014,07,10,02,13,13.00
2014,07,10,02,14,13.00
2014,07,10,02,15,13.00
2014,07,10,02,16,13.00
2014,07,10,02,17,13.00
2014,07,10,02,18,13.00
2014,07,10,02,19,13.00
2014,07,10,02,20,13.00
2014,07,10,02,21,13.00
2014,07,10,02,22,12.90
2014,07,10,02,23,12.90
2014,07,10,02,24,12.90
2014,07,10,02,25,12.90
2014,07,10,02,26,12.90
2014,07,10,02,27,13.00
2014,07,10,02,28,13.00
2014,07,10,02,29,13.00
2014,07,10,02,30,13.00
2014,07,10,02,31,13.00
2014,07,10,02,32,13.00
2014,07,10,02,33,12.90
2014,07,10,02,34,12.90
2014,07,10,02,35,12.90
2014,07,10,02,36,12.90
2014,07,10,02,37,12.90
2014,07,10,02,38,12.90
2014,07,10,02,39,12.90
2014,07,10,02,40,12.90
2014,07,10,02,41,12.90
2014,07,10,02,42,12.90
2014,07,10,02,43,12.90
2014,07,10,02,44,12.80
2014,07,10,02,45,12.80
2014,07,10,02,46,12.80
2014,07,10,02,47,12.80
2014,07,10,02,48,12.80
2014,07,10,02,49,12.80
2014,07,10,02,50,12.80
2014,07,10,02,51,12.80
2014,07,10,02,52,12.80
2014,07,10,02,53,12.80
2014,07,10,02,54,12.80
2014,07,10,02,55,12.70
2014,07,10,02,56,12.70
2014,07,10,02,57,12.70
2014,07,10,02,58,12.70
2014,07,10,02,59,12.70
2014,07,10,03,00,12.70
2014,07,10,03,01,12.70
2014,07,10,03,02,12.60
2014,07,10,03,03,12.60
2014,07,10,03,04,12.60
2014,07,10,03,05,12.60
2014,07,10,03,06,12.60
2014,07,10,03,07,12.60
2014,07,10,03,08,12.60
2014,07,10,03,09,12.60
2014,07,10,03,10,12.60
2014,07,10,03,11,12.50
2014,07,10,03,12,12.50
2014,07,10,03,13,12.50
2014,07,10,03,14,12.50
2014,07,10,03,15,12.50
2014,07,10,03,16,12.50
2014,07,10,03,17,12.50
2014,07,10,03,18,12.50
2014,07,10,03,19,12.50
2014,07,10,03,20,12.50
2014,07,10,03,21,12.50
2014,07,10,03,22,12.50
2014,07,10,03,23,12.50
2014,07,10,03,24,12.50
2014,07,10,03,25,12.50
2014,07,10,03,26,12.50
2014,07,10,03,27,12.50
2014,07,10,03,28,12.50
2014,07,10,03,29,12.50
2014,07,10,03,30,12.40
2014,07,10,03,31,12.40
2014,07,10,03,32,12.50
2014,07,10,03,33,12.50
2014,07,10,03,34,12.40
2014,07,10,03,35,12.40
2014,07,10,03,36,12.40
2014,07,10,03,37,12.40
2014,07,10,03,38,12.40
2014,07,10,03,39,12.40
2014,07,10,03,40,12.50
2014,07,10,03,41,12.50
2014,07,10,03,42,12.50
2014,07,10,03,43,12.50
2014,07,10,03,44,12.50
2014,07,10,03,45,12.50
2014,07,10,03,46,12.50
2014,07,10,03,47,12.50
2014,07,10,03,48,12.50
2014,07,10,03,49,12.50
2014,07,10,03,50,12.50
2014,07,10,03,51,12.50
2014,07,10,03,52,12.50
2014,07,10,03,53,12.50
2014,07,10,03,54,12.50
2014,07,10,03,55,12.50
2014,07,10,03,56,12.50
2014,07,10,03,57,12.50
2014,07,10,03,58,12.50
2014,07,10,03,59,12.50
2014,07,10,04,00,12.40
2014,07,10,04,01,12.40
2014,07,10,04,02,12.40
2014,07,10,04,03,12.40
2014,07,10,04,04,12.40
2014,07,10,04,05,12.40
2014,07,10,04,06,12.40
2014,07,10,04,07,12.30
2014,07,10,04,08,12.30
2014,07,10,04,09,12.30
2014,07,10,04,10,12.30
2014,07,10,04,11,12.30
2014,07,10,04,12,12.30
2014,07,10,04,13,12.30
2014,07,10,04,14,12.30
2014,07,10,04,15,12.30
2014,07,10,04,16,12.30
2014,07,10,04,17,12.30
2014,07,10,04,18,12.30
2014,07,10,04,19,12.30
2014,07,10,04,20,12.30
2014,07,10,04,21,12.30
2014,07,10,04,22,12.30
2014,07,10,04,23,12.30
2014,07,10,04,24,12.30
2014,07,10,04,25,12.30
2014,07,10,04,26,12.30
2014,07,10,04,27,12.30
2014,07,10,04,28,12.20
2014,07,10,04,29,12.20
2014,07,10,04,30,12.20
2014,07,10,04,31,12.20
2014,07,10,04,32,12.20
2014,07,10,04,33,12.20
2014,07,10,04,34,12.20
2014,07,10,04,35,12.10
2014,07,10,04,36,12.10
2014,07,10,04,37,12.10
2014,07,10,04,38,12.10
2014,07,10,04,39,12.10
2014,07,10,04,40,12.10
2014,07,10,04,41,12.10
2014,07,10,04,42,12.00
2014,07,10,04,43,12.00
2014,07,10,04,44,12.00
2014,07,10,04,45,12.00
2014,07,10,04,46,12.00
2014,07,10,04,47,12.00
2014,07,10,04,48,12.00
2014,07,10,04,49,12.00
2014,07,10,04,50,12.00
2014,07,10,04,51,12.00
2014,07,10,04,52,12.00
2014,07,10,04,53,12.00
2014,07,10,04,54,12.00
2014,07,10,04,55,12.00
2014,07,10,04,56,12.00
2014,07,10,04,57,12.00
2014,07,10,04,58,11.90
2014,07,10,04,59,11.90
2014,07,10,05,00,11.90
2014,07,10,05,01,11.90
2014,07,10,05,02,11.90
2014,07,10,05,03,11.90
2014,07,10,05,04,12.00
2014,07,10,05,05,12.00
2014,07,10,05,06,12.00
2014,07,10,05,07,12.00
2014,07,10,05,08,12.00
2014,07,10,05,09,12.00
2014,07,10,05,10,12.00
2014,07,10,05,11,12.00
2014,07,10,05,12,12.10
2014,07,10,05,13,12.10
2014,07,10,05,14,12.10
2014,07,10,05,15,12.10
2014,07,10,05,16,12.10
2014,07,10,05,17,12.10
2014,07,10,05,18,12.00
2014,07,10,05,19,12.00
2014,07,10,05,20,12.00
2014,07,10,05,21,12.00
2014,07,10,05,22,12.00
2014,07,10,05,23,11.90
2014,07,10,05,24,11.90
2014,07,10,05,25,11.90
2014,07,10,05,26,11.90
2014,07,10,05,27,11.80
2014,07,10,05,28,11.80
2014,07,10,05,29,11.80
2014,07,10,05,30,11.80
2014,07,10,05,31,11.80
2014,07,10,05,32,11.80
2014,07,10,05,33,11.80
2014,07,10,05,34,11.80
2014,07,10,05,35,11.80
2014,07,10,05,36,11.80
2014,07,10,05,37,11.80
2014,07,10,05,38,11.80
2014,07,10,05,39,11.80
2014,07,10,05,40,11.80
2014,07,10,05,41,11.70
2014,07,10,05,42,11.70
2014,07,10,05,43,11.70
2014,07,10,05,44,11.70
2014,07,10,05,45,11.70
2014,07,10,05,46,11.70
2014,07,10,05,47,11.70
2014,07,10,05,48,11.70
2014,07,10,05,49,11.70
2014,07,10,05,50,11.70
2014,07,10,05,51,11.60
2014,07,10,05,52,11.60
2014,07,10,05,53,11.60
2014,07,10,05,54,11.60
2014,07,10,05,55,11.60
2014,07,10,05,56,11.60
2014,07,10,05,57,11.60
2014,07,10,05,58,11.60
2014,07,10,05,59,11.60
2014,07,10,06,00,11.60
2014,07,10,06,01,11.60
2014,07,10,06,02,11.60
2014,07,10,06,03,11.60
2014,07,10,06,04,11.60
2014,07,10,06,05,11.60
2014,07,10,06,06,11.60
2014,07,10,06,07,11.60
2014,07,10,06,08,11.60
2014,07,10,06,09,11.60
2014,07,10,06,10,11.70
2014,07,10,06,11,11.70
2014,07,10,06,12,11.70
2014,07,10,06,13,11.80
2014,07,10,06,14,11.80
2014,07,10,06,15,11.80
2014,07,10,06,16,11.80
2014,07,10,06,17,11.80
2014,07,10,06,18,11.80
2014,07,10,06,19,11.90
2014,07,10,06,20,11.90
2014,07,10,06,21,11.90
2014,07,10,06,22,12.00
2014,07,10,06,23,12.00
2014,07,10,06,24,12.10
2014,07,10,06,25,12.10
2014,07,10,06,26,12.20
2014,07,10,06,27,12.20
2014,07,10,06,28,12.30
2014,07,10,06,29,12.30
2014,07,10,06,30,12.40
2014,07,10,06,31,12.50
2014,07,10,06,32,12.50
2014,07,10,06,33,12.60
2014,07,10,06,34,12.70
2014,07,10,06,35,12.80
2014,07,10,06,36,12.80
2014,07,10,06,37,12.90
2014,07,10,06,38,12.90
2014,07,10,06,39,13.00
2014,07,10,06,40,13.00
2014,07,10,06,41,13.10
2014,07,10,06,42,13.10
2014,07,10,06,43,13.20
2014,07,10,06,44,13.30
2014,07,10,06,45,13.30
2014,07,10,06,46,13.40
2014,07,10,06,47,13.50
2014,07,10,06,48,13.50
2014,07,10,06,49,13.60
2014,07,10,06,50,13.70
2014,07,10,06,51,13.70
2014,07,10,06,52,13.80
2014,07,10,06,53,13.80
2014,07,10,06,54,13.90
2014,07,10,06,55,14.00
2014,07,10,06,56,14.10
2014,07,10,06,57,14.20
2014,07,10,06,58,14.20
2014,07,10,06,59,14.30
2014,07,10,07,00,14.30
2014,07,10,07,01,14.40
2014,07,10,07,02,14.50
2014,07,10,07,03,14.60
2014,07,10,07,04,14.60
2014,07,10,07,05,14.80
2014,07,10,07,06,14.90
2014,07,10,07,07,15.00
2014,07,10,07,08,15.10
2014,07,10,07,09,15.20
2014,07,10,07,10,15.30
2014,07,10,07,11,15.30
2014,07,10,07,12,15.40
2014,07,10,07,13,15.40
2014,07,10,07,14,15.50
2014,07,10,07,15,15.50
2014,07,10,07,16,15.60
2014,07,10,07,17,15.60
2014,07,10,07,18,15.70
2014,07,10,07,19,15.80
2014,07,10,07,20,15.80
2014,07,10,07,21,15.80
2014,07,10,07,22,15.90
2014,07,10,07,23,15.90
2014,07,10,07,24,15.90
2014,07,10,07,25,16.10
2014,07,10,07,26,16.10
2014,07,10,07,27,16.10
2014,07,10,07,28,16.20
2014,07,10,07,29,16.30
2014,07,10,07,30,16.40
2014,07,10,07,31,16.50
2014,07,10,07,32,16.70
2014,07,10,07,33,16.70
2014,07,10,07,34,16.80
2014,07,10,07,35,16.90
2014,07,10,07,36,17.00
2014,07,10,07,37,17.00
2014,07,10,07,38,17.10
2014,07,10,07,39,17.10
2014,07,10,07,40,17.20
2014,07,10,07,41,17.10
2014,07,10,07,42,17.10
2014,07,10,07,43,17.10
2014,07,10,07,44,17.10
2014,07,10,07,45,17.10
2014,07,10,07,46,17.10
2014,07,10,07,47,17.20
2014,07,10,07,48,17.30
2014,07,10,07,49,17.40
2014,07,10,07,50,17.50
2014,07,10,07,51,17.60
2014,07,10,07,52,17.70
2014,07,10,07,53,17.80
2014,07,10,07,54,17.80
2014,07,10,07,55,17.90
2014,07,10,07,56,17.90
2014,07,10,07,57,18.10
2014,07,10,07,58,18.10
2014,07,10,07,59,18.20
2014,07,10,08,00,18.20
2014,07,10,08,01,18.30
2014,07,10,08,02,18.30
2014,07,10,08,03,18.30
2014,07,10,08,04,18.30
2014,07,10,08,05,18.40
2014,07,10,08,06,18.40
2014,07,10,08,07,18.40
2014,07,10,08,08,18.50
2014,07,10,08,09,18.50
2014,07,10,08,10,18.60
2014,07,10,08,11,18.60
2014,07,10,08,12,18.60
2014,07,10,08,13,18.60
2014,07,10,08,14,18.70
2014,07,10,08,15,18.70
2014,07,10,08,16,18.80
2014,07,10,08,17,18.80
2014,07,10,08,18,18.90
2014,07,10,08,19,18.90
2014,07,10,08,20,18.90
2014,07,10,08,21,18.90
2014,07,10,08,22,19.00
2014,07,10,08,23,19.10
2014,07,10,08,24,19.10
2014,07,10,08,25,19.10
2014,07,10,08,26,19.10
2014,07,10,08,27,19.20
2014,07,10,08,28,19.20
2014,07,10,08,29,19.10
2014,07,10,08,30,19.10
2014,07,10,08,31,19.10
2014,07,10,08,32,19.10
2014,07,10,08,33,19.20
2014,07,10,08,34,19.30
2014,07,10,08,35,19.30
2014,07,10,08,36,19.40
2014,07,10,08,37,19.60
2014,07,10,08,38,19.70
2014,07,10,08,39,19.80
2014,07,10,08,40,19.90
2014,07,10,08,41,19.90
2014,07,10,08,42,20.00
2014,07,10,08,43,20.10
2014,07,10,08,44,20.00
2014,07,10,08,45,19.90
2014,07,10,08,46,19.90
2014,07,10,08,47,19.90
2014,07,10,08,48,19.90
2014,07,10,08,49,20.00
2014,07,10,08,50,20.10
2014,07,10,08,51,20.20
2014,07,10,08,52,20.20
2014,07,10,08,53,20.10
2014,07,10,08,54,20.10
2014,07,10,08,55,20.10
2014,07,10,08,56,20.00
2014,07,10,08,57,19.90
2014,07,10,08,58,19.90
2014,07,10,08,59,19.90
2014,07,10,09,00,19.90
2014,07,10,09,01,19.90
2014,07,10,09,02,19.80
2014,07,10,09,03,19.80
2014,07,10,09,04,19.90
2014,07,10,09,05,19.90
2014,07,10,09,06,20.10
2014,07,10,09,07,20.10
2014,07,10,09,08,20.20
2014,07,10,09,09,20.30
2014,07,10,09,10,20.40
2014,07,10,09,11,20.50
2014,07,10,09,12,20.60
2014,07,10,09,13,20.60
2014,07,10,09,14,20.60
2014,07,10,09,15,20.70
2014,07,10,09,16,20.70
2014,07,10,09,17,20.70
2014,07,10,09,18,20.70
2014,07,10,09,19,20.80
2014,07,10,09,20,20.80
2014,07,10,09,21,20.90
2014,07,10,09,22,20.80
2014,07,10,09,23,20.80
2014,07,10,09,24,20.70
2014,07,10,09,25,20.60
2014,07,10,09,26,20.60
2014,07,10,09,27,20.60
2014,07,10,09,28,20.70
2014,07,10,09,29,20.70
2014,07,10,09,30,20.80
2014,07,10,09,31,20.90
2014,07,10,09,32,21.00
2014,07,10,09,33,21.00
2014,07,10,09,34,21.00
2014,07,10,09,35,20.90
2014,07,10,09,36,20.90
2014,07,10,09,37,21.00
2014,07,10,09,38,21.10
2014,07,10,09,39,21.20
2014,07,10,09,40,21.30
2014,07,10,09,41,21.30
2014,07,10,09,42,21.30
2014,07,10,09,43,21.30
2014,07,10,09,44,21.30
2014,07,10,09,45,21.30
2014,07,10,09,46,21.40
2014,07,10,09,47,21.40
2014,07,10,09,48,21.50
2014,07,10,09,49,21.60
2014,07,10,09,50,21.60
2014,07,10,09,51,21.50
2014,07,10,09,52,21.40
2014,07,10,09,53,21.30
2014,07,10,09,54,21.30
2014,07,10,09,55,21.20
2014,07,10,09,56,21.20
2014,07,10,09,57,21.20
2014,07,10,09,58,21.30
2014,07,10,09,59,21.30
2014,07,10,10,00,21.30
2014,07,10,10,01,21.20
2014,07,10,10,02,21.10
2014,07,10,10,03,21.10
2014,07,10,10,04,21.10
2014,07,10,10,05,21.10
2014,07,10,10,06,21.30
2014,07,10,10,07,21.30
2014,07,10,10,08,21.40
2014,07,10,10,09,21.50
2014,07,10,10,10,21.60
2014,07,10,10,11,21.60
2014,07,10,10,12,21.60
2014,07,10,10,13,21.60
2014,07,10,10,14,21.60
2014,07,10,10,15,21.60
2014,07,10,10,16,21.40
2014,07,10,10,17,21.30
2014,07,10,10,18,21.30
2014,07,10,10,19,21.30
2014,07,10,10,20,21.30
2014,07,10,10,21,21.30
2014,07,10,10,22,21.30
2014,07,10,10,23,21.20
2014,07,10,10,24,21.10
2014,07,10,10,25,21.10
2014,07,10,10,26,21.10
2014,07,10,10,27,21.30
2014,07,10,10,28,21.30
2014,07,10,10,29,21.30
2014,07,10,10,30,21.30
2014,07,10,10,31,21.40
2014,07,10,10,32,21.50
2014,07,10,10,33,21.60
2014,07,10,10,34,21.60
2014,07,10,10,35,21.60
2014,07,10,10,36,21.60
2014,07,10,10,37,21.50
2014,07,10,10,38,21.40
2014,07,10,10,39,21.40
2014,07,10,10,40,21.30
2014,07,10,10,41,21.30
2014,07,10,10,42,21.30
2014,07,10,10,43,21.30
2014,07,10,10,44,21.30
2014,07,10,10,45,21.30
2014,07,10,10,46,21.30
2014,07,10,10,47,21.30
2014,07,10,10,48,21.30
2014,07,10,10,49,21.30
2014,07,10,10,50,21.50
2014,07,10,10,51,21.60
2014,07,10,10,52,21.60
2014,07,10,10,53,21.70
2014,07,10,10,54,21.80
2014,07,10,10,55,21.80
2014,07,10,10,56,21.90
2014,07,10,10,57,21.90
2014,07,10,10,58,21.90
2014,07,10,10,59,21.90
2014,07,10,11,00,21.80
2014,07,10,11,01,21.90
2014,07,10,11,02,22.00
2014,07,10,11,03,22.00
2014,07,10,11,04,22.00
2014,07,10,11,05,22.00
2014,07,10,11,06,22.00
2014,07,10,11,07,22.10
2014,07,10,11,08,22.10
2014,07,10,11,09,22.10
2014,07,10,11,10,22.10
2014,07,10,11,11,22.10
2014,07,10,11,12,22.10
2014,07,10,11,13,22.00
2014,07,10,11,14,21.90
2014,07,10,11,15,21.70
2014,07,10,11,16,21.60
2014,07,10,11,17,21.60
2014,07,10,11,18,21.70
2014,07,10,11,19,21.90
2014,07,10,11,20,22.00
2014,07,10,11,21,22.10
2014,07,10,11,22,22.10
2014,07,10,11,23,22.00
2014,07,10,11,24,21.90
2014,07,10,11,25,21.90
2014,07,10,11,26,22.00
2014,07,10,11,27,22.10
2014,07,10,11,28,22.10
2014,07,10,11,29,22.10
2014,07,10,11,30,22.10
2014,07,10,11,31,22.10
2014,07,10,11,32,22.20
2014,07,10,11,33,22.30
2014,07,10,11,34,22.40
2014,07,10,11,35,22.50
2014,07,10,11,36,22.60
2014,07,10,11,37,22.80
2014,07,10,11,38,22.90
2014,07,10,11,39,22.90
2014,07,10,11,40,22.90
2014,07,10,11,41,22.90
2014,07,10,11,42,22.90
2014,07,10,11,43,22.90
2014,07,10,11,44,22.90
2014,07,10,11,45,22.90
2014,07,10,11,46,22.90
2014,07,10,11,47,22.80
2014,07,10,11,48,22.80
2014,07,10,11,49,22.70
2014,07,10,11,50,22.60
2014,07,10,11,51,22.60
2014,07,10,11,52,22.40
2014,07,10,11,53,22.10
2014,07,10,11,54,22.10
2014,07,10,11,55,22.00
2014,07,10,11,56,22.10
2014,07,10,11,57,22.20
2014,07,10,11,58,22.30
2014,07,10,11,59,22.30
2014,07,10,12,00,22.30
2014,07,10,12,01,22.30
2014,07,10,12,02,22.30
2014,07,10,12,03,22.20
2014,07,10,12,04,22.10
2014,07,10,12,05,22.20
2014,07,10,12,06,22.10
2014,07,10,12,07,22.10
2014,07,10,12,08,22.10
2014,07,10,12,09,22.20
2014,07,10,12,10,22.30
2014,07,10,12,11,22.30
2014,07,10,12,12,22.40
2014,07,10,12,13,22.60
2014,07,10,12,14,22.70
2014,07,10,12,15,22.90
2014,07,10,12,16,22.90
2014,07,10,12,17,23.00
2014,07,10,12,18,23.10
2014,07,10,12,19,23.20
2014,07,10,12,20,23.30
2014,07,10,12,21,23.40
2014,07,10,12,22,23.50
2014,07,10,12,23,23.60
2014,07,10,12,24,23.70
2014,07,10,12,25,23.80
2014,07,10,12,26,23.80
2014,07,10,12,27,23.80
2014,07,10,12,28,23.70
2014,07,10,12,29,23.80
2014,07,10,12,30,23.90
2014,07,10,12,31,24.00
2014,07,10,12,32,23.90
2014,07,10,12,33,23.70
2014,07,10,12,34,23.70
2014,07,10,12,35,23.70
2014,07,10,12,36,23.70
2014,07,10,12,37,23.70
2014,07,10,12,38,23.70
2014,07,10,12,39,23.90
2014,07,10,12,40,23.90
2014,07,10,12,41,23.80
2014,07,10,12,42,23.70
2014,07,10,12,43,23.80
2014,07,10,12,44,23.90
2014,07,10,12,45,23.90
2014,07,10,12,46,23.90
2014,07,10,12,47,23.90
2014,07,10,12,48,23.90
2014,07,10,12,49,24.00
2014,07,10,12,50,24.10
2014,07,10,12,51,24.10
2014,07,10,12,52,24.10
2014,07,10,12,53,24.10
2014,07,10,12,54,24.20
2014,07,10,12,55,24.20
2014,07,10,12,56,24.20
2014,07,10,12,57,24.10
2014,07,10,12,58,24.00
2014,07,10,12,59,23.90
2014,07,10,13,00,23.90
2014,07,10,13,01,23.90
2014,07,10,13,02,23.80
2014,07,10,13,03,23.70
2014,07,10,13,04,23.50
2014,07,10,13,05,23.40
2014,07,10,13,06,23.30
2014,07,10,13,07,23.20
2014,07,10,13,08,23.20
2014,07,10,13,09,23.30
2014,07,10,13,10,23.30
2014,07,10,13,11,23.40
2014,07,10,13,12,23.50
2014,07,10,13,13,23.60
2014,07,10,13,14,23.60
2014,07,10,13,15,23.60
2014,07,10,13,16,23.60
2014,07,10,13,17,23.60
2014,07,10,13,18,23.60
2014,07,10,13,19,23.60
2014,07,10,13,20,23.50
2014,07,10,13,21,23.50
2014,07,10,13,22,23.60
2014,07,10,13,23,23.70
2014,07,10,13,24,23.70
2014,07,10,13,25,23.80
2014,07,10,13,26,23.90
2014,07,10,13,27,24.00
2014,07,10,13,28,24.10
2014,07,10,13,29,24.30
2014,07,10,13,30,24.40
2014,07,10,13,31,24.50
2014,07,10,13,32,24.60
2014,07,10,13,33,24.70
2014,07,10,13,34,24.90
2014,07,10,13,35,24.90
2014,07,10,13,36,25.10
2014,07,10,13,37,25.00
2014,07,10,13,38,25.10
2014,07,10,13,39,25.20
2014,07,10,13,40,25.20
2014,07,10,13,41,25.30
2014,07,10,13,42,25.40
2014,07,10,13,43,25.40
2014,07,10,13,44,25.30
2014,07,10,13,45,25.40
2014,07,10,13,46,25.40
2014,07,10,13,47,25.30
2014,07,10,13,48,25.30
2014,07,10,13,49,25.30
2014,07,10,13,50,25.30
2014,07,10,13,51,25.30
2014,07,10,13,52,25.30
2014,07,10,13,53,25.20
2014,07,10,13,54,25.00
2014,07,10,13,55,24.90
2014,07,10,13,56,24.90
2014,07,10,13,57,25.00
2014,07,10,13,58,25.00
2014,07,10,13,59,25.10
2014,07,10,14,00,25.00
2014,07,10,14,01,24.90
2014,07,10,14,02,24.90
2014,07,10,14,03,24.90
2014,07,10,14,04,25.00
2014,07,10,14,05,25.00
2014,07,10,14,06,24.90
2014,07,10,14,07,24.80
2014,07,10,14,08,24.70
2014,07,10,14,09,24.60
2014,07,10,14,10,24.70
2014,07,10,14,11,24.70
2014,07,10,14,12,24.60
2014,07,10,14,13,24.50
2014,07,10,14,14,24.50
2014,07,10,14,15,24.50
2014,07,10,14,16,24.50
2014,07,10,14,17,24.50
2014,07,10,14,18,24.60
2014,07,10,14,19,24.60
2014,07,10,14,20,24.70
2014,07,10,14,21,24.70
2014,07,10,14,22,24.70
2014,07,10,14,23,24.50
2014,07,10,14,24,24.40
2014,07,10,14,25,24.50
2014,07,10,14,26,24.60
2014,07,10,14,27,24.60
2014,07,10,14,28,24.50
2014,07,10,14,29,24.50
2014,07,10,14,30,24.40
2014,07,10,14,31,24.20
2014,07,10,14,32,24.20
2014,07,10,14,33,24.20
2014,07,10,14,34,24.20
2014,07,10,14,35,24.30
2014,07,10,14,36,24.40
2014,07,10,14,37,24.40
2014,07,10,14,38,24.40
2014,07,10,14,39,24.40
2014,07,10,14,40,24.40
2014,07,10,14,41,24.40
2014,07,10,14,42,24.40
2014,07,10,14,43,24.50
2014,07,10,14,44,24.50
2014,07,10,14,45,24.50
2014,07,10,14,46,24.50
2014,07,10,14,47,24.50
2014,07,10,14,48,24.60
2014,07,10,14,49,24.80
2014,07,10,14,50,24.80
2014,07,10,14,51,24.90
2014,07,10,14,52,24.80
2014,07,10,14,53,24.80
2014,07,10,14,54,24.80
2014,07,10,14,55,24.90
2014,07,10,14,56,24.90
2014,07,10,14,57,24.90
2014,07,10,14,58,24.90
2014,07,10,14,59,24.90
2014,07,10,15,00,25.00
2014,07,10,15,01,25.10
2014,07,10,15,02,25.20
2014,07,10,15,03,25.30
2014,07,10,15,04,25.30
2014,07,10,15,05,25.40
2014,07,10,15,06,25.40
2014,07,10,15,07,25.30
2014,07,10,15,08,25.00
2014,07,10,15,09,24.80
2014,07,10,15,10,24.80
2014,07,10,15,11,24.70
2014,07,10,15,12,24.60
2014,07,10,15,13,24.50
2014,07,10,15,14,24.40
2014,07,10,15,15,24.40
2014,07,10,15,16,24.40
2014,07,10,15,17,24.40
2014,07,10,15,18,24.50
2014,07,10,15,19,24.60
2014,07,10,15,20,24.60
2014,07,10,15,21,24.70
2014,07,10,15,22,24.70
2014,07,10,15,23,24.70
2014,07,10,15,24,24.60
2014,07,10,15,25,24.50
2014,07,10,15,26,24.60
2014,07,10,15,27,24.60
2014,07,10,15,28,24.70
2014,07,10,15,29,24.80
2014,07,10,15,30,24.80
2014,07,10,15,31,24.90
2014,07,10,15,32,24.90
2014,07,10,15,33,24.90
2014,07,10,15,34,24.90
2014,07,10,15,35,24.90
2014,07,10,15,36,24.90
2014,07,10,15,37,24.80
2014,07,10,15,38,24.70
2014,07,10,15,39,24.60
2014,07,10,15,40,24.50
2014,07,10,15,41,24.50
2014,07,10,15,42,24.40
2014,07,10,15,43,24.30
2014,07,10,15,44,24.20
2014,07,10,15,45,24.20
2014,07,10,15,46,24.20
2014,07,10,15,47,24.20
2014,07,10,15,48,24.30
2014,07,10,15,49,24.30
2014,07,10,15,50,24.30
2014,07,10,15,51,24.40
2014,07,10,15,52,24.50
2014,07,10,15,53,24.60
2014,07,10,15,54,24.70
2014,07,10,15,55,24.70
2014,07,10,15,56,24.70
2014,07,10,15,57,24.70
2014,07,10,15,58,24.80
2014,07,10,15,59,24.80
2014,07,10,16,00,24.70
2014,07,10,16,01,24.80
2014,07,10,16,02,24.80
2014,07,10,16,03,24.70
2014,07,10,16,04,24.60
2014,07,10,16,05,24.60
2014,07,10,16,06,24.70
2014,07,10,16,07,24.80
2014,07,10,16,08,24.90
2014,07,10,16,09,24.90
2014,07,10,16,10,24.90
2014,07,10,16,11,24.90
2014,07,10,16,12,24.80
2014,07,10,16,13,24.70
2014,07,10,16,14,24.60
2014,07,10,16,15,24.50
2014,07,10,16,16,24.30
2014,07,10,16,17,24.30
2014,07,10,16,18,24.30
2014,07,10,16,19,24.40
2014,07,10,16,20,24.40
2014,07,10,16,21,24.30
2014,07,10,16,22,24.20
2014,07,10,16,23,24.20
2014,07,10,16,24,24.30
2014,07,10,16,25,24.30
2014,07,10,16,26,24.20
2014,07,10,16,27,24.10
2014,07,10,16,28,24.10
2014,07,10,16,29,24.00
2014,07,10,16,30,23.90
2014,07,10,16,31,23.80
2014,07,10,16,32,23.90
2014,07,10,16,33,24.00
2014,07,10,16,34,24.10
2014,07,10,16,35,24.20
2014,07,10,16,36,24.20
2014,07,10,16,37,24.20
2014,07,10,16,38,24.10
2014,07,10,16,39,24.10
2014,07,10,16,40,24.10
2014,07,10,16,41,24.10
2014,07,10,16,42,24.10
2014,07,10,16,43,24.10
2014,07,10,16,44,24.10
2014,07,10,16,45,24.00
2014,07,10,16,46,24.10
2014,07,10,16,47,24.10
2014,07,10,16,48,24.10
2014,07,10,16,49,24.10
2014,07,10,16,50,24.10
2014,07,10,16,51,24.20
2014,07,10,16,52,24.20
2014,07,10,16,53,24.20
2014,07,10,16,54,24.20
2014,07,10,16,55,24.10
2014,07,10,16,56,24.10
2014,07,10,16,57,24.10
2014,07,10,16,58,24.10
2014,07,10,16,59,24.20
2014,07,10,17,00,24.20
2014,07,10,17,01,24.20
2014,07,10,17,02,24.20
2014,07,10,17,03,24.20
2014,07,10,17,04,24.20
2014,07,10,17,05,24.20
2014,07,10,17,06,24.20
2014,07,10,17,07,24.20
2014,07,10,17,08,24.30
2014,07,10,17,09,24.30
2014,07,10,17,10,24.30
2014,07,10,17,11,24.30
2014,07,10,17,12,24.30
2014,07,10,17,13,24.30
2014,07,10,17,14,24.30
2014,07,10,17,15,24.20
2014,07,10,17,16,24.10
2014,07,10,17,17,24.10
2014,07,10,17,18,24.10
2014,07,10,17,19,24.00